Location: Pensacola
(30.4142°N, 87.2155°W)
Time: 14:11:43
(UTC-05:00)

ISS - Visible Passes

Search period start: 24 September 2017 00:00
Search period end: 04 October 2017 00:00
Orbit: 401 x 407 km, 51.6° (Epoch: 25 September)

Date Brightness Start Highest point End Pass type
(mag) Time Alt. Az. Time Alt. Az. Time Alt. Az.
24 Sep -3.9 19:41:29 10° SW 19:44:43 89° SSE 19:47:03 18° NE visible
25 Sep -1.1 20:26:53 10° WNW 20:29:00 16° NW 20:30:16 13° N visible
26 Sep -2.0 19:33:35 10° WSW 19:36:30 30° NW 19:39:26 10° NNE visible
28 Sep -0.9 19:26:45 10° WNW 19:28:24 13° NW 19:30:04 10° N visible
